This demonstration page uses our WeatherBlox Daily Observations layout. Learn more.

Left ArrowRight Arrow

Hourly Observations for October 10, 2016

Temp ( °F °C ) Dew Point ( °F °C ) Humidity (%) Winds ( mph kmh ) Pressure ( in mb ) Visibility ( mi km ) Precip ( " mm )
12:15 am 00:15 Partly Cloudy 54 12 43 6 67 67 NW 13 20 30.24 1024 10 16 N/A
12:35 am 00:35 Mostly Cloudy 54 12 43 6 67 67 NW 8 13 30.24 1024 10 16 N/A
12:55 am 00:55 Mostly Cloudy 54 12 43 6 67 67 NW 8 13 30.24 1024 10 16 N/A
1:15 am 01:15 Partly Cloudy 54 12 43 6 67 67 NW 7 11 30.24 1024 10 16 N/A
1:35 am 01:35 Clear 54 12 43 6 67 67 NNW 9 15 30.24 1024 10 16 N/A
1:55 am 01:55 Clear 54 12 43 6 67 67 N 13 20 30.24 1024 10 16 N/A
2:15 am 02:15 Clear 54 12 43 6 67 67 N 10 17 30.24 1024 10 16 N/A
2:35 am 02:35 Clear 54 12 43 6 67 67 N 13 20 30.24 1024 10 16 N/A
2:55 am 02:55 Clear 54 12 43 6 67 67 N 8 13 30.30 1026 10 16 N/A
3:15 am 03:15 Clear 52 11 43 6 72 72 N 8 13 30.30 1026 10 16 N/A
3:35 am 03:35 Clear 52 11 43 6 72 72 N 9 15 30.30 1026 10 16 N/A
3:55 am 03:55 Clear 52 11 41 5 67 67 N 13 20 30.30 1026 10 16 N/A
4:15 am 04:15 Clear 52 11 41 5 67 67 N 9 15 30.30 1026 10 16 N/A
4:35 am 04:35 Clear 52 11 41 5 67 67 N 13 20 30.30 1026 10 16 N/A
4:55 am 04:55 Clear 50 10 41 5 71 71 NNW 12 19 30.30 1026 10 16 N/A
5:15 am 05:15 Clear 50 10 41 5 71 71 NNW 13 20 30.30 1026 10 16 N/A
5:35 am 05:35 Clear 50 10 41 5 71 71 N 13 20 30.33 1027 10 16 N/A
5:55 am 05:55 Clear 50 10 41 5 71 71 NNW 14 22 30.33 1027 10 16 N/A
6:15 am 06:15 Clear 48 9 39 4 71 71 NNW 12 19 30.33 1027 10 16 N/A
6:35 am 06:35 Clear 48 9 39 4 71 71 NNW 14 22 30.33 1027 10 16 N/A
6:55 am 06:55 Clear 46 8 41 5 82 82 NNW 10 17 30.36 1028 10 16 N/A
7:15 am 07:15 Clear 46 8 39 4 76 76 NNW 12 19 30.36 1028 10 16 N/A
7:35 am 07:35 Sunny 46 8 39 4 76 76 NNW 10 17 30.36 1028 10 16 N/A
7:55 am 07:55 Sunny 46 8 39 4 76 76 NNW 12 19 30.36 1028 10 16 N/A
8:15 am 08:15 Sunny 48 9 41 5 76 76 NNW 13 20 30.39 1029 10 16 N/A
8:35 am 08:35 Sunny 50 10 41 5 71 71 NNW 12 19 30.39 1029 10 16 N/A
8:55 am 08:55 Sunny 50 10 41 5 71 71 N 17 28 30.39 1029 10 16 N/A
9:15 am 09:15 Sunny 52 11 41 5 67 67 NNW 14 22 30.39 1029 10 16 N/A
9:35 am 09:35 Sunny 52 11 41 5 67 67 N 15 24 30.39 1029 10 16 N/A
10:15 am 10:15 Sunny 54 12 41 5 63 63 N 16 26 30.42 1030 10 16 N/A
10:35 am 10:35 Sunny 54 12 39 4 58 58 N 14 22 30.42 1030 10 16 N/A
10:55 am 10:55 Sunny with Nearby Thunderstorms 55 13 41 5 59 59 N 13 20 30.42 1030 10 16 N/A
11:15 am 11:15 Sunny 55 13 41 5 59 59 N 12 19 30.42 1030 10 16 N/A
11:35 am 11:35 Sunny 57 14 41 5 55 55 NNW 12 19 30.39 1029 10 16 N/A
11:55 am 11:55 Sunny 57 14 39 4 51 51 NNW 14 22 30.39 1029 10 16 N/A
12:15 pm 12:15 Sunny 59 15 41 5 51 51 NNW 12 19 30.39 1029 10 16 N/A
12:35 pm 12:35 Sunny 61 16 41 5 48 48 NW 13 20 30.39 1029 10 16 N/A
12:55 pm 12:55 Sunny 61 16 39 4 45 45 NNW 16 26 30.39 1029 10 16 N/A
1:15 pm 13:15 Sunny 61 16 41 5 48 48 NNW 16 26 30.36 1028 10 16 N/A
1:35 pm 13:35 Sunny 61 16 39 4 45 45 N 14 22 30.36 1028 10 16 N/A
1:55 pm 13:55 Sunny 61 16 37 3 42 42 N 10 17 30.36 1028 10 16 N/A
2:15 pm 14:15 Sunny 63 17 37 3 39 39 NNW 12 19 30.33 1027 10 16 N/A
2:35 pm 14:35 Sunny 63 17 37 3 39 39 NNW 12 19 30.33 1027 10 16 N/A
2:55 pm 14:55 Sunny 63 17 37 3 39 39 NNW 13 20 30.33 1027 10 16 N/A
3:15 pm 15:15 Sunny 63 17 37 3 39 39 N 9 15 30.33 1027 10 16 N/A
3:35 pm 15:35 Sunny 64 18 37 3 37 37 NNW 8 13 30.33 1027 10 16 N/A
3:55 pm 15:55 Sunny 64 18 37 3 37 37 N 9 15 30.33 1027 10 16 N/A
4:15 pm 16:15 Sunny 64 18 37 3 37 37 NNW 10 17 30.33 1027 10 16 N/A
4:35 pm 16:35 Sunny 64 18 36 2 34 34 N 7 11 30.33 1027 10 16 N/A
4:55 pm 16:55 Sunny 64 18 37 3 37 37 NNW 8 13 30.33 1027 10 16 N/A
5:15 pm 17:15 Sunny 64 18 39 4 40 40 NNW 10 17 30.33 1027 10 16 N/A
5:35 pm 17:35 Sunny 63 17 37 3 39 39 N 7 11 30.33 1027 10 16 N/A
5:55 pm 17:55 Sunny 63 17 37 3 39 39 NNW 9 15 30.33 1027 10 16 N/A
6:15 pm 18:15 Sunny 63 17 39 4 42 42 N 7 11 30.33 1027 10 16 N/A
6:35 pm 18:35 Sunny 61 16 37 3 42 42 N 6 9 30.33 1027 10 16 N/A
6:55 pm 18:55 Clear 59 15 41 5 51 51 NNW 3 6 30.36 1028 10 16 N/A
7:15 pm 19:15 Clear 55 13 43 6 63 63 N N/A 30.36 1028 10 16 N/A
7:35 pm 19:35 Clear 54 12 45 7 72 72 N 3 6 30.39 1029 10 16 N/A
7:55 pm 19:55 Clear 52 11 45 7 77 77 N N/A 30.39 1029 10 16 N/A
8:15 pm 20:15 Clear 52 11 45 7 77 77 N N/A 30.39 1029 10 16 N/A
8:35 pm 20:35 Clear 52 11 45 7 77 77 NW 3 6 30.39 1029 10 16 N/A
8:55 pm 20:55 Clear 52 11 43 6 72 72 N 5 7 30.39 1029 10 16 N/A
9:15 pm 21:15 Clear 48 9 45 7 87 87 N 5 7 30.42 1030 10 16 N/A
9:35 pm 21:35 Clear 50 10 45 7 82 82 N N/A 30.42 1030 10 16 N/A
9:55 pm 21:55 Clear 46 8 45 7 93 93 N N/A 30.42 1030 10 16 N/A
10:15 pm 22:15 Clear 46 8 45 7 93 93 N N/A 30.42 1030 10 16 N/A
10:35 pm 22:35 Clear 46 8 45 7 93 93 N N/A 30.42 1030 10 16 N/A
10:55 pm 22:55 Clear 45 7 45 7 100 100 N N/A 30.42 1030 10 16 N/A
11:15 pm 23:15 Clear 45 7 43 6 93 93 NW 3 6 30.42 1030 10 16 N/A
11:35 pm 23:35 Clear 43 6 43 6 100 100 W 3 6 30.45 1031 10 16 N/A
11:55 pm 23:55 Clear 43 6 43 6 100 100 WNW 3 6 30.45 1031 10 16 N/A

Powered by AerisWeather